METEOR 2-17 DEB, 35369

Orbit data source: Space-Track

METEOR 2-17 DEB, 35369 is space debris in LEO originally from a launch on Sat, 30 Jan 1988 UTC launched from the Plesetsk Missile And Space Complex (PKMTR). Debris objects in space refer to the collection of defunct objects orbiting the Earth. Examples of debris include non-operational satellites, rocket bodies, and fragments generated from explosions, collisions, or faulty payload assembly.

Loading next visibility...
Identifier
35369, 1988-005AD
Orbit
LEO
Last TLE update
1 week ago
Origin
Manufacturer
Unknown
Mission
Spacecraft
Bus & Motor
Unknown
Mass
Unknown
Launch date (UTC)
1988-01-30 (37 years ago)
Launch vehicle
Unknown
Launch site
Plesetsk Missile And Space Complex (PKMTR)
Object type
Payload
Rocket body
Debris
Shape & HBR
Unknown
Radar Cross Section
Small (<0.1 m²)

Expand to show TLE details & history

TLE from 1 week ago
0 METEOR 2-17 DEB
1 35369U 88005AD  25122.06309321  .00003407  00000-0  23991-2 0  9993
2 35369  82.5250 246.4886 0017327  95.5727  29.5980 13.97737842688436
Epoch: 2025-05-02T01:30Z
Definitive object data (Epoch: 2025-05-02T01:30:51.253Z)
Latitude
54.14725°
Longitude
173.1441°
Altitude
899.58 km
Speed
7.413 km/s
True Right ascension
03h 44m 19s
True Declination
53° 59' 13"
Sunlit
Object was in daylight at TLE epoch
Visualization TLE readout
Latitude
-66.78481°
Longitude
-20.08511°
Altitude
936.758 km
Speed
7.377 km/s
Apparent Right ascension
05h 24m 50s
Apparent Declination
-77° 59' 16"
Sunlit
Object is in full shadow
Visualization observer readout
Local Sidereal Time
15:58:55
Azimuth
186.942° SSW
Elevation
-50.91°
Doppler factor
1
Orbital elements
Apogee altitude
911.382 km
Perigee altitude
886.164 km
Semi-major axis
7,276.91 km
Eccentricity
0.0017327
Inclination
82.525°
RAAN
246.4886°
Arg. of periapsis
95.5727°
True anomaly
29.69625°
Mean anomaly
29.598°
Eccentric anomaly
29.64711°
Mean motion
3.49641 °/min
BSTAR
0.0023991
Orbital period
102.96 mins
Loading maneuver chart data...
Loading SW <> Apogee altitude chart data...
Loading historical data...
Loading historical data...
Loading historical data...
Loading historical data...
Loading historical data...
Loading historical data...
Loading historical data...

METEOR 2-17 DEB Visibility forecast

Observer location: undefined°, undefined°

Span
Click to sort rows by Start time (UTC) header in descending order
Start Az.
Max El. time (UTC)
Max El. Az.
Max El.
End time (UTC)
End Az.
10 mins2025-05-09 08:15:51.589Z187.935° SSW2025-05-09 08:20:51.589Z289.09° WNW44.926°2025-05-09 08:25:51.589Z6.39° NNE
10 mins2025-05-09 19:02:51.589Z0.799° NNE2025-05-09 19:07:51.589Z100.981° ESE41.867°2025-05-09 19:12:51.589Z161.786° S
5 mins2025-05-09 20:48:51.589Z298.696° NW2025-05-09 20:50:51.589Z275.337° WNW15.418°2025-05-09 20:53:51.589Z243.239° WSW
|